Regional Weather Roundup
Issued by NWS Albany, NY

Home | Current Version | Previous Version | Text Only | Print | Product List | Glossary On
Versions: 1 2 3 4 5 6 7 8 9 10 11 12 13 14 15 16 17 18 19 20 21 22 23 24 25 26 27 28 29 30 31 32 33 34 35 36 37 38 39 40 41 42 43 44 45 46 47 48 49 50
000
ASUS41 KALY 171310
RWRALY

NEW YORK STATE HOURLY WEATHER ROUNDUP
NATIONAL WEATHER SERVICE ALBANY NY
800 AM EST WED DEC 17 2014

NOTE: "FAIR" INDICATES FEW OR NO CLOUDS BELOW 12,000 FEET WITH NO
SIGNIFICANT WEATHER AND/OR NO OBSTRUCTIONS TO VISIBILITY.

NYZ032-033-038>043-046>054-057>066-NYZ062>081-171400-
EAST


CITY           SKY/WX    TMP DP  RH WIND       PRES   REMARKS
ALBANY         LGT RAIN  36  34  92 CALM      29.83S VSB 1/2
GLENS FALLS    LGT RAIN  33  33 100 CALM      29.82S VSB 3/4
POUGHKEEPSIE   FOG       41  39  93 CALM      29.83S VSB 1/4
MONTGOMERY     CLOUDY    41  40  96 W7        29.82S
WHITE PLAINS   MOCLDY    44  40  85 W12       29.81R
ISLIP          FOG       44  42  93 W7        29.80S VSB 1/2
NEW YORK CITY  PTCLDY    45  41  86 W10       29.83R
CENTRAL PARK   MOCLDY    45  41  86 CALM      29.86R
$$

NYZ005>009-017-018-044>046-055-056-171400-
CENTRAL


CITY           SKY/WX    TMP DP  RH WIND       PRES   REMARKS
FULTON         LGT RAIN  41  38  89 SW8       29.80R
SYRACUSE       LGT RAIN  41  39  93 SW9       29.81R
ROME           LGT RAIN  36  36 100 SE5       29.83S FOG     WCI  32
ELMIRA         CLOUDY    39  38  96 CALM      29.83R
BINGHAMTON     LGT RAIN  38  37  97 SW7       29.81R VSB 3/4 WCI  33
MONTICELLO     CLOUDY    37  37 100 W9        29.82S WCI  31
$$

NYZ026>034-041>043-171400-
NORTH


CITY           SKY/WX    TMP DP  RH WIND       PRES   REMARKS
WATERTOWN      LGT RAIN  42  37  82 S8        29.77S
FORT DRUM      NOT AVBL
MASSENA        CLOUDY    33  32  96 E5        29.79S FOG     WCI  29
SARANAC LAKE   CLOUDY    33  32  96 CALM      29.74S FOG
PLATTSBURGH    FOG       33  33 100 CALM      29.80S VSB 1
$$

NYZ001>004-010>016-019>021-171400-
WEST


CITY           SKY/WX    TMP DP  RH WIND       PRES   REMARKS
NIAGARA FALLS  LGT RAIN  40  38  93 SW15      29.83R WCI  32
BUFFALO        LGT RAIN  37  35  92 SW28G36   29.84R WCI  25
DUNKIRK        LGT RAIN  36  34  92 W20G31    29.91R WCI  25
JAMESTOWN      CLOUDY    34  30  86 W14       29.88R WCI  24
WELLSVILLE     FLURRIES  35  32  88 W20G28    29.84R WCI  24
ROCHESTER      CLOUDY    41  36  82 W17       29.82R
PENN YAN       CLOUDY    43  35  73 SW16G23   29.82R
$$

             KEY
       WCI = WIND CHILL INDEX
       VSB = VISIBILITY
       HX  = HEAT INDEX
$$



USA.gov is the U.S. government's official web portal to all federal, state and local government web resources and services.